Regional Weather Roundup
Issued by NWS Newport/Morehead, NC

Current Version | Previous Version | Graphics & Text | Print | Product List | Glossary On
Versions: 1 2 3 4 5 6 7 8 9 10 11 12 13 14 15 16 17 18 19 20 21 22 23 24 25 26 27 28 29 30 31 32 33 34 35 36 37 38 39 40 41 42 43 44 45 46 47 48 49 50
000 ASUS42 KMHX 291025 RWRMHX WEATHER ROUNDUP FOR EASTERN NORTH CAROLINA NATIONAL WEATHER SERVICE NEWPORT/MOREHEAD CITY NC 600 AM EDT WED JUL 29 2015 NOTE: "FAIR" INDICATES FEW OR NO CLOUDS BELOW 12,000 FEET WITH NO SIGNIFICANT WEATHER AND/OR OBSTRUCTIONS TO VISIBILITY NCZ015>017-031-032-045>047-102-103-291100- NORTH COAST CITY SKY/WX TMP DP RH WIND PRES REMARKS EDENTON CLEAR 71 69 93 CALM 30.00R ELIZABETH CITY CLEAR 71 70 96 NW3 30.00R KITTY HAWK SUNNY 74 69 85 CALM 29.99R MANTEO CLEAR 73 70 89 CALM 30.01R $$ NCZ045>047-081-094-103-104-291100- CENTRAL COAST CITY SKY/WX TMP DP RH WIND PRES REMARKS FRISCO CLEAR 79 68 69 SE9 29.99R SWANQUARTER N/A 72 N/A N/A N2 29.97R $$ NCZ095-097-098-100-101-291100- SOUTHERN COAST CITY SKY/WX TMP DP RH WIND PRES REMARKS BEAUFORT CLEAR 78 71 79 E7 29.97R CEDAR ISLAND N/A 79 N/A N/A E9 30.03R JACKSONVILLE CLEAR 76 71 85 E6 29.97R PINEY ISLAND SUNNY N/A N/A N/A E8 29.98R WILMINGTON CLEAR 71 69 93 CALM 29.97R $$ NCZ011>013-027>030-043-044-078>080-089-090>093-098-291100- COASTAL PLAIN CITY SKY/WX TMP DP RH WIND PRES REMARKS AHOSKIE CLEAR 68 67 96 CALM 30.01R CLINTON CLEAR 72 72 99 CALM 30.00R ELIZABETHTOWN CLEAR 71 71 100 CALM 29.99R GOLDSBORO PTCLDY 72 71 95 CALM 29.98R GREENVILLE CLEAR 72 72 100 CALM 30.02S HAVELOCK CLEAR 74 70 87 E3 29.99R KENANSVILLE CLEAR 69 68 96 CALM 30.01R KINSTON CLEAR 72 70 95 CALM 30.01R NEW BERN CLEAR 73 70 90 CALM 30.00R RICHLANDS CLEAR 70 64 83 CALM 29.99R ROCKY MOUNT PTCLDY 71 70 96 CALM 30.00S WASHINGTON CLEAR 70 69 96 CALM 30.01R WHITEVILLE CLEAR 70 69 96 CALM 29.98R $$ AMZ130-135-150-152-154-156-158-170-250-252-270-ANZ085-086-088-633-658-670-291100- MARINE OBSERVATIONS STATION/POSITION TIME TEMP WIND PRES WAVE SWELL AIR SEA DIR/SP/G HT/PER HT/PER (UTC) (F) (DEG/KT/KT) (MB) (FT/S) (FT/S) CHESAPEAKE LIGHT 1000 79 220/ 9/ 10 1016.2 64 E VA BEACH 0950 80 80 180/ 6/ 8 1015.4 2/10 2/10 DUCK 1000 77 66 160/ 7/ 7 1014.9 2 E DUCK 0911 78 N/A 2/11 OREGON INLET 1000 77 82 130/ 3/ 4 1015.6 13E OREGON INLT 1000 81 N/A 2/10 HATTERAS CG 1000 80 83 110/ 6/ 10 1015.2 DIAMOND BUOY NOT AVBL CAPE LOOKOUT 1000 80 80/ 13/ 15 1014.6 BEAUFORT LAB 1000 79 81 90/ 5/ 8 1014.3 30 SE NEW RVR IN NOT AVBL 27 SE WRIGHTSVLE 1000 78 82 80/ 14/ 17 N/A 5 SE WRIGHTSVLE NOT AVBL 225 S CAPE HAT 0950 83 81 220/ 17/ 21 1012.8 6/ 7 2/11 41 SE CHARLESTON 0950 83 84 70/ 12/ 12 1012.9 3/ 6 2/ 6 $$

USA.gov is the U.S. government's official web portal to all federal, state and local government web resources and services.